Home > Weather > Yazd > Past weeks

Flag for Iran Past Weather in Yazd, Iran — Yesterday and Last 2 Weeks

Now
90 °F

Passing clouds.


Feels Like: 86 °F
Forecast: 79 / 105 °F
Wind: 7 mph from Northwest

Location: Yazd Airport

Current Time: Jul 27, 2016 at 6:23:59 AM

Latest Report: Jul 27, 2016 at 5:30 AM


Visibility: N/A

Pressure: 29.80 "Hg (26.00 "Hg at 1218m altitude)

Humidity: 14%

Dew Point: 34 °F

Location of YazdLocation

Past Weather in Yazd — Graph

°F

Yazd Temperature Yesterday

Maximum temperature yesterday: 109 °F (at 5:00 PM)
Minimum temperature yesterday: 86 °F (at 5:30 AM)
Average temperature yesterday: 98 °F

High & Low Weather Summary for the Past Weeks

 TemperatureHumidityPressure
High109 °F (Jul 12, 3:30 PM)30% (Jul 14, 5:30 AM)30.04 "Hg (Jul 14, 5:30 AM)
Low73 °F (Jul 16, 5:30 AM)3% (Jul 16, 5:30 PM)29.71 "Hg (Jul 12, 4:30 AM)
Average94 °F11%29.87 "Hg
* Reported Jul 12 4:30 AM — Jul 27 4:30 AM, Yazd, Weather by CustomWeather, © 2016

Note: Actual official high and low records may vary slightly from our data, if they occured in-between our weather recording intervals... More about our weather records

Advertising

Yazd Weather History for the Previous 24 Hours

Scroll right to see more
 ConditionsComfort  
Time TempWeatherWind HumidityBarometerVisibility
4:30 AM
Wed, Jul 27
88 °FPassing clouds.5 mph13%29.77 "HgN/A
3:30 AM88 °FPassing clouds.5 mph13%29.77 "HgN/A
2:30 AM90 °FPassing clouds.2 mph11%29.77 "HgN/A
1:30 AM93 °FPassing clouds.5 mph9%29.74 "HgN/A
12:30 AM95 °FClear.7 mph8%29.77 "Hg10 mi
11:30 PM
Tue, Jul 26
93 °FClear.5 mph8%29.77 "Hg10 mi
11:00 PM95 °FClear.5 mph7%29.77 "Hg10 mi
10:30 PM95 °FClear.5 mph8%29.77 "Hg10 mi
10:00 PM97 °FClear.5 mph7%29.74 "Hg10 mi
9:30 PM99 °FClear.5 mph7%29.74 "Hg10 mi
9:00 PM99 °FSunny.2 mph8%29.74 "Hg10 mi
8:30 PM100 °FPassing clouds.2 mph8%29.74 "HgN/A
8:00 PM102 °FPassing clouds.2 mph7%29.74 "HgN/A
7:30 PM106 °FPassing clouds.5 mph6%29.74 "Hg5 mi
7:00 PM106 °FPassing clouds.5 mph5%29.74 "Hg5 mi
6:30 PM108 °FPassing clouds.5 mph5%29.74 "Hg5 mi
6:00 PM108 °FPassing clouds.7 mph5%29.74 "Hg4 mi
5:30 PM108 °FPassing clouds.5 mph5%29.74 "Hg5 mi
5:00 PM109 °FPassing clouds.5 mph5%29.74 "Hg5 mi
4:30 PM108 °FPassing clouds.5 mph5%29.74 "Hg5 mi
3:30 PM108 °FPassing clouds.5 mph5%29.77 "Hg5 mi
2:30 PM108 °FPassing clouds.7 mph6%29.80 "HgN/A
1:30 PM106 °FPassing clouds.9 mph6%29.80 "HgN/A
12:30 PM104 °FPassing clouds.12 mph6%29.83 "HgN/A
12:00 PM102 °FPassing clouds.9 mph7%29.83 "HgN/A
11:30 AM100 °FPassing clouds.12 mph7%29.86 "HgN/A
11:00 AM100 °FPassing clouds.14 mph7%29.86 "HgN/A
10:30 AM99 °FPassing clouds.12 mph8%29.86 "HgN/A
10:00 AM97 °FPassing clouds.9 mph7%29.86 "HgN/A
9:30 AM95 °FPassing clouds.7 mph9%29.86 "HgN/A
9:00 AM95 °FPassing clouds.7 mph7%29.86 "HgN/A
8:30 AM91 °FScattered clouds.2 mph8%29.86 "HgN/A
8:00 AM86 °FScattered clouds.No wind11%29.83 "HgN/A
7:30 AM86 °FPassing clouds.2 mph10%29.83 "HgN/A
7:00 AM86 °FPassing clouds.5 mph9%29.80 "HgN/A
6:30 AM86 °FPassing clouds.7 mph9%29.80 "HgN/A
6:00 AM86 °FPassing clouds.7 mph8%29.77 "HgN/A
Weather by CustomWeather, © 2016

See weather overviewHow to use our weather pages